Location: San Antonio de Areco
(34.2500°S, 59.4670°W)
Time: 14:12:10
(UTC-03:00)

ISS - Visible Passes

Search period start: 30 July 2014 00:00
Search period end: 09 August 2014 00:00
Orbit: 411 x 419 km, 51.6° (Epoch: 30 July)

Date Brightness Start Highest point End Pass type
(mag) Time Alt. Az. Time Alt. Az. Time Alt. Az.
30 Jul -1.8 18:50:29 10° WSW 18:53:40 41° NW 18:56:50 10° NNE visible
01 Aug 0.2 18:50:54 10° W 18:52:25 13° NW 18:53:56 10° NNW visible
08 Aug -1.0 06:36:14 10° N 06:39:08 27° NE 06:42:03 10° ESE visible
